Location: Unspecified
(0.0000°N, 0.0000°E)
Time: 18:59:01
(UTC+00:00)

CAPRICORN - Pass Details

Date: 01 November 2019
Orbit: 325 x 40040 km, 64.5° (Epoch: 16 April)

Event Time Altitude Azimuth Distance (km) Brightness Sun altitude
Rises 09:49:32 0° 108° (ESE) 26,431 ? 58.3°
Reaches altitude 10° 10:37:13 10° 97° (E) 32,458 ? 68.2°
Maximum altitude 15:19:24 56° 28° (NNE) 39,812 ? 34.7°
Drops below altitude 10° 19:08:40 10° 3° (N) 18,047 ? -20.6°
Sets 19:24:40 0° 12° (NNE) 15,220 ? -24.4°
